User: anonymous   Login
Location: Unspecified
(0.0000°N, 0.0000°E)
Time: 01:05:18
(UTC+00:00)
Language:

GALILEO 7 (263) - Orbit

View from above orbital plane
View from above orbital plane
View from above satellite
View from above satellite

Ground track
Ground track

The orbit data is extracted from the following two-line orbital elements,

1 40544U 15017A   17142.77110388 -.00000038 +00000-0 +00000-0 0  9993
2 40544 055.5974 072.7174 0002847 277.3887 082.5523 01.70474860012730
Epoch (UTC): 22 May 2017 18:30:23
Eccentricity: 0.0002847
inclination: 55.5974°
perigee height: 23213 km
apogee height: 23230 km
right ascension of ascending node: 72.7174°
argument of perigee: 277.3887°
revolutions per day: 1.70474860
mean anomaly at epoch: 82.5523°
orbit number at epoch: 1273

The dashed part of the orbit path shows where the satellite is in the earth's shadow,  

DLR